208  
ASUS42 KILM 281210  
RWRILM  
RWRILM  
REGIONAL HOURLY WEATHER ROUNDUP  
NATIONAL WEATHER SERVICE WILMINGTON NC  
700 AM EST MON NOV 28 2022  
 
NOTE: "FAIR" INDICATES FEW OR NO CLOUDS BELOW 12,000 FEET WITH NO  
SIGNIFICANT WEATHER AND/OR S TO VISIBILITY
.  
   
..............WFO WILMINGTON COUNTY WARNING AREA............
 
 
   
.....COASTAL NC AND SC COUNTIES...
 
 
 
CITY SKY/WX TMP DP RH WIND PRES REMARKS
 
WILMINGTON CLEAR 56 47 71 SW9 29.86R  
N MYRTLE BEACH CLEAR 55 46 71 SW9 29.88R  
MYRTLE BEACH CLEAR 55 48 77 SW7 29.91R  
   
.....INLAND NC AND SC COUNTIES....
 
 
 
CITY SKY/WX TMP DP RH WIND PRES REMARKS
 
LUMBERTON CLEAR 52 47 83 W3 29.86R  
ELIZABETHTOWN CLEAR 51 46 84 SW3 29.87R  
WHITEVILLE CLEAR 55 46 71 SW3 29.88R  
FLORENCE CLEAR 54 46 74 SW9 29.88R  
DARLINGTON CLEAR 49 46 90 SW7 29.87R  
KINGSTREE FAIR 50 45 81 CALM 29.91R  
HARTSVILLE FAIR 46 45 93 CALM 29.87R  
BENNETTSVILLE FAIR 48 46 93 CALM 29.86R  
CONWAY FAIR 54 45 71 SW5 29.90R  
GEORGETOWN FAIR 50 46 87 SW7 29.93R  
MARION FAIR 52 43 71 SW5 29.88R  
   
...................REST OF NORTH CAROLINA...................
 
 
   
........EASTERN NC......
 
 
 
CITY SKY/WX TMP DP RH WIND PRES REMARKS
 
CAPE HATTERAS CLEAR 58 50 75 W10G21 29.80R  
JACKSONVILLE CLEAR 50 46 86 SW6 29.85R  
MOREHEAD CITY CLEAR 58 49 72 W10 29.84R  
KENANSVILLE CLEAR 50 46 87 SW7 29.85R  
NEW BERN CLEAR 55 46 71 SW7 29.84R  
ELIZABETH CITY CLEAR 53 46 77 SW8 29.75R  
   
........CENTRAL NC......
 
 
 
CITY SKY/WX TMP DP RH WIND PRES REMARKS
 
RALEIGH DURHAM PTCLDY 48 43 82 SW7 29.81R  
ROCKY MOUNT CLEAR 52 43 71 SW6 29.80R  
ROANOKE RAPIDS NOT AVBL  
FAYETTEVILLE CLEAR 50 46 86 SW8 29.84R  
HOFFMAN CLEAR 49 46 89 W6 29.82R  
   
........WESTERN NC......
 
 
 
CITY SKY/WX TMP DP RH WIND PRES REMARKS
 
CHARLOTTE CLEAR 47 43 86 CALM 29.85R  
GREENSBORO PTCLDY 47 40 76 W7 29.81R  
HICKORY NOT AVBL  
BOONE NOT AVBL  
ASHEVILLE NOT AVBL  
   
....................REST OF SOUTH CAROLINA..................
 
 
   
........EASTERN SC......
 
 
 
CITY SKY/WX TMP DP RH WIND PRES REMARKS
 
CHARLESTON CLEAR 53 46 77 SW5 29.94R  
BEAUFORT MCAS CLEAR 52 47 83 W6 29.96R  
HILTON HEAD CLEAR 55 48 76 W7G15 29.97R  
   
........CENTRAL SC......
 
 
 
CITY SKY/WX TMP DP RH WIND PRES REMARKS
 
COLUMBIA CLEAR 51 45 79 SW7 29.89R  
ORANGEBURG CLEAR 48 45 89 S7 29.92R  
SUMTER SHAW CLEAR 52 45 77 SW8 29.88R  
   
........WESTERN SC......
 
 
 
CITY SKY/WX TMP DP RH WIND PRES REMARKS
 
GREENVILLE NOT AVBL  
ROCK HILL CLEAR 61 44 53 SW7 29.85R  
ANDERSON CLEAR 52 45 77 SW7 29.87R  
CLEMSON NOT AVBL  
GREENWOOD CLEAR 49 44 83 SW9 29.90R  
 
   
..................COASTAL AND OFFSHORE REPORTS...............
 
 
   
...............LOCAL PIERS AND NC RESERVE.............
 
 
 
STATION/POSITION TIME SKY/WX TEMP WIND PRES VSBY
 
AIR SEA DIR/SP/G  
(UTC) (F) (DEG/KT/KT) (MB) (MI)  
JOHNY MRCER PIER 1124 58 62 230/ 7/ 10 1010.3  
NC RESRV MASNBRO NOT AVBL  
OCEAN CREST PIER NOT AVBL  
SPRINGMAID PIER 1124 57 230/ 8/ 10 1012.8  
 
   
...............COASTAL AND OFFSHORE BUOYS.............
 
 
 
STATION/POSITION TIME SKY/WX TEMP WIND PRES VSBY
 
AIR SEA DIR/SP/G  
(UTC) (F) (DEG/KT/KT) (MB) (MI)  
DIMNDSHOAL 41025 1150 73 280/ 21/ 27 1009.0R  
CAPE LOOKOUT 1100 61 260/ 18/ 22 1010.0R  
ONSLOW BAY 41036 NOT AVBL  
ONSLOW BAY 41064 NOT AVBL  
ONSLOW BAY 41159 1156 72 N/A  
WVE H/P(F/S)= 8/ 8 SWL H/P/D(F/S/D)= 2/200/11  
 
MASNBO INL 41110 1126 64 N/A  
WVE H/P(F/S)= 4/ 8  
 
WILM HARBR 41108 1130 63 63 N/A  
WVE H/P(F/S)= 6/ 8  
 
27SE WRITB 41037 NOT AVBL  
FRYING PAN 41013 1150 67 74 260/ 23/ 29 1012.1R  
WVE H/P(F/S)= 7/ 8 SWL H/P/D(F/S/D)= 3/200/ 8  
 
SUNST NRSH 41024 NOT AVBL  
CAPRS NRSH 41029 NOT AVBL  
EDISTO 41004 1150 270/ 19/ 27 1014.0R  
 
   
.........OFFSHORE BUOYS BEYOND 100 NM OFFSHORE........
 
   
....IN A TRIANGLE---HAT TO BERMUDA TO BAHAMAS TO HAT..
 
 
 
 
STATION/POSITION TIME SKY/WX TEMP WIND PRES VSBY
 
AIR SEA DIR/SP/G  
(UTC) (F) (DEG/KT/KT) (MB) (MI)  
150E HAT 41001 1150 74 74 260/ 21/ 31 1008.3R  
WVE H/P(F/S)= 12/ 9 SWL H/P/D(F/S/D)= 8/240/ 9  
 
W BERMUDA 41048 1150 1014.6R  
ATLANTIC S 41049 1150 76 79 150/ 10/ 14 1017.4R  
WVE H/P(F/S)= 9/13 SWL H/P/D(F/S/D)= 8/340/13  
 
E BAHAMAS 41046 1150 80 80/ 12/ 16 1017.0R  
WVE H/P(F/S)= 7/11 SWL H/P/D(F/S/D)= 7/360/11  
 
NE BAHAMAS 41047 1150 77 80 180/ 4/ 6 1015.6R  
WVE H/P(F/S)= 4/10 SWL H/P/D(F/S/D)= 3/ 40/10  
 
120E CANVRL41010 1150 78 78 290/ 16/ 19 1015.8R  
WVE H/P(F/S)= 4/ 5 SWL H/P/D(F/S/D)= 2/100/ 9  
 
END  
 
 
CLICK HERE TO GO TO PREVIOUS BULLETINS.

The Nexlab NC Page
The Nexlab SC Page Main Text Page